Willimantic, CT

8:58 PM EDT on October 16, 2019 (GMT -0400)
Windham

Weather History for KIJD - August, 2019

Change the Weather History Date:

Thursday, August 8, 2019

  Actual Average Record
Temperature  
Mean Temperature 75 °F -  
Max Temperature 84 °F 81 °F 96 °F (2001)
Min Temperature 66 °F 59 °F 42 °F (1957)
Cooling Degree Days 10    
Growing Degree Days 25 (Base 50)    
Moisture  
Dew Point 67 °F    
Average Humidity 85    
Maximum Humidity 100    
Minimum Humidity 53    
Precipitation  
Precipitation 0.00 in - - ()
Sea Level Pressure  
Sea Level Pressure 29.72 in    
Wind  
Wind Speed 2 mph (SSW)    
Max Wind Speed 13 mph    
Max Gust Speed 18 mph    
Visibility 9 miles    
Events Rain    
Averages and records for this station are not official NWS values.
T = Trace of Precipitation, MM = Missing Value Source: NWS Daily Summary

Daily Weather History Graph

Daily Weather History Graph

Search for Another Location

Airport or City:

Astronomy

Aug. 08, 2019 Rise Set
Actual Time 5:49 AM EDT 7:58 PM EDT
Civil Twilight 5:18 AM EDT 8:28 PM EDT
Nautical Twilight 4:41 AM EDT 9:06 PM EDT
Astronomical Twilight 3:59 AM EDT 9:47 PM EDT
Moon 2:31 PM EDT (8/8) 12:10 AM EDT (8/8)
Length of Visible Light 15h 10m
Length of Day
14h 08m
First Quarter, 60% of the Moon is Illuminated
Aug 8
First Quarter
Aug 15
Full
Aug 23
Last Quarter
Aug 30
New
Sep 5
First Quarter

Hourly Weather History & Observations

Time (EDT) Temp. Heat Index Dew Point Humidity Pressure Visibility Wind Dir Wind Speed Gust Speed Precip Events Conditions
12:31 AM 70.0 °F - 69.1 °F 97% 29.77 in 10.0 mi Calm Calm - 0.00 in   Overcast
12:43 AM 70.0 °F - 69.1 °F 97% 29.77 in 10.0 mi Calm Calm - 0.00 in Rain Light Rain
12:52 AM 70.0 °F - 69.1 °F 97% 29.76 in 10.0 mi Calm Calm - 0.00 in   Mostly Cloudy
1:22 AM 70.0 °F - 69.1 °F 97% 29.75 in 9.0 mi Calm Calm - N/A   Overcast
1:30 AM 70.0 °F - 69.1 °F 97% 29.75 in 9.0 mi Calm Calm - N/A   Overcast
1:52 AM 70.0 °F - 69.1 °F 97% 29.74 in 9.0 mi Calm Calm - N/A   Overcast
2:16 AM 70.0 °F - 69.1 °F 97% 29.75 in 9.0 mi Calm Calm - N/A   Overcast
2:50 AM 69.8 °F - 69.8 °F 100% 29.75 in 9.0 mi SSE 3.5 mph - N/A   Mostly Cloudy
2:52 AM 70.0 °F - 69.1 °F 97% 29.74 in 9.0 mi SSE 3.5 mph - N/A   Mostly Cloudy
3:52 AM 69.1 °F - 68.0 °F 96% 29.74 in 7.0 mi South 4.6 mph - N/A   Mostly Cloudy
4:06 AM 69.1 °F - 68.0 °F 96% 29.74 in 8.0 mi SSW 4.6 mph - N/A   Scattered Clouds
4:25 AM 69.1 °F - 68.0 °F 96% 29.74 in 7.0 mi South 3.5 mph - N/A   Mostly Cloudy
4:38 AM 69.1 °F - 68.0 °F 96% 29.74 in 8.0 mi South 3.5 mph - N/A   Scattered Clouds
4:52 AM 69.1 °F - 68.0 °F 96% 29.73 in 9.0 mi South 4.6 mph - N/A   Clear
5:34 AM 68.0 °F - 66.9 °F 96% 29.74 in 8.0 mi Calm Calm - N/A   Mostly Cloudy
5:52 AM 68.0 °F - 66.9 °F 96% 29.73 in 7.0 mi SSW 4.6 mph - N/A   Scattered Clouds
6:13 AM 68.0 °F - 66.9 °F 96% 29.74 in 6.0 mi South 4.6 mph - N/A   Mostly Cloudy
6:52 AM 68.0 °F - 66.0 °F 93% 29.73 in 8.0 mi Calm Calm - N/A   Overcast
7:28 AM 69.1 °F - 66.0 °F 90% 29.73 in 9.0 mi Calm Calm - N/A   Mostly Cloudy
7:38 AM 69.1 °F - 66.9 °F 93% 29.73 in 8.0 mi Calm Calm - N/A   Scattered Clouds
7:44 AM 69.1 °F - 66.9 °F 93% 29.74 in 8.0 mi SSW 3.5 mph - N/A   Mostly Cloudy
7:52 AM 69.1 °F - 66.9 °F 93% 29.73 in 9.0 mi Calm Calm - N/A   Mostly Cloudy
8:52 AM 71.1 °F - 68.0 °F 90% 29.74 in 10.0 mi South 5.8 mph - N/A   Overcast
9:52 AM 72.0 °F - 66.9 °F 84% 29.74 in 10.0 mi SW 4.6 mph - N/A   Overcast
10:12 AM 73.9 °F - 68.0 °F 82% 29.74 in 10.0 mi Variable 5.8 mph - N/A   Overcast
10:52 AM 75.9 °F - 68.0 °F 76% 29.73 in 10.0 mi SSW 6.9 mph - N/A   Mostly Cloudy
11:50 AM 78.8 °F - 66.2 °F 65% 29.72 in 10.0 mi SW 8.1 mph - N/A   Scattered Clouds
11:52 AM 79.0 °F - 66.9 °F 66% 29.71 in 10.0 mi Variable 4.6 mph - N/A   Scattered Clouds
12:52 PM 82.0 °F 84.5 °F 66.9 °F 60% 29.70 in 10.0 mi WNW 8.1 mph - N/A   Scattered Clouds
1:52 PM 82.9 °F 85.4 °F 66.9 °F 58% 29.68 in 10.0 mi West 8.1 mph - N/A   Scattered Clouds
3:52 PM 84.0 °F 85.8 °F 64.9 °F 53% 29.65 in 10.0 mi SW 11.5 mph - N/A   Partly Cloudy
4:52 PM 84.9 °F 87.6 °F 66.9 °F 55% 29.65 in 10.0 mi SSW 12.7 mph 17.3 mph N/A   Partly Cloudy
5:52 PM 82.9 °F 85.0 °F 66.0 °F 56% 29.65 in 10.0 mi SSW 11.5 mph 18.4 mph N/A   Clear
6:52 PM 82.0 °F 84.5 °F 66.9 °F 60% 29.66 in 10.0 mi SW 6.9 mph - N/A   Clear
7:52 PM 79.0 °F - 66.9 °F 66% 29.68 in 10.0 mi SW 3.5 mph - N/A   Scattered Clouds
8:52 PM 70.0 °F - 62.1 °F 76% 29.70 in 10.0 mi Calm Calm - 0.00 in Rain Light Rain
9:52 PM 68.0 °F - 62.1 °F 81% 29.71 in 10.0 mi Calm Calm - 0.00 in   Clear
10:52 PM 66.0 °F - 64.0 °F 93% 29.70 in 10.0 mi Calm Calm - N/A   Clear
11:52 PM 66.9 °F - 61.0 °F 81% 29.70 in 10.0 mi SSW 4.6 mph - N/A   Clear